Home > Weather > Basel > Past weeks

Flag for Switzerland Past Weather in Basel, Basel-Stadt, Switzerland — Yesterday and Last 2 Weeks

Now
77 °F

Partly sunny.


Feels Like: 79 °F
Forecast: 65 / 79 °F
Wind: 7 mph from West

Location: Bale-Mulhouse

Current Time: Jul 23, 2016 at 3:23:45 PM

Latest Report: Jul 23, 2016 at 2:00 PM


Visibility: 19 mi

Pressure: 30.03 "Hg

Humidity: 60%

Dew Point: 62 °F

Location of BaselLocation

Past Weather in Basel — Graph

°F

Basel Temperature Yesterday

Maximum temperature yesterday: 78 °F (at 10:00 AM)
Minimum temperature yesterday: 62 °F (at 11:00 PM)
Average temperature yesterday: 69 °F

High & Low Weather Summary for the Past Weeks

 TemperatureHumidityPressure
High95 °F (Jul 20, 4:00 PM)98% (Jul 16, 7:00 AM)30.37 "Hg (Jul 16, 7:00 AM)
Low45 °F (Jul 16, 5:00 AM)30% (Jul 19, 6:00 PM)29.84 "Hg (Jul 10, 6:00 PM)
Average69 °F71%30.07 "Hg
* Reported Jul 8 2:00 PM — Jul 23 2:00 PM, Basel, Weather by CustomWeather, © 2016

Note: Actual official high and low records may vary slightly from our data, if they occured in-between our weather recording intervals... More about our weather records

Advertising

Basel Weather History for the Previous 24 Hours

Scroll right to see more
 ConditionsComfort  
Time TempWeatherWind HumidityBarometerVisibility
2:00 PM
Sat, Jul 23
77 °FPartly sunny.7 mph60%30.03 "Hg19 mi
1:00 PM77 °FPartly sunny.5 mph63%30.03 "Hg19 mi
12:00 PM73 °FPartly sunny.5 mph70%30.04 "Hg19 mi
11:00 AM71 °FOvercast.3 mph76%30.05 "Hg19 mi
10:00 AM69 °FOvercast.3 mph80%30.04 "Hg19 mi
9:00 AM68 °FOvercast.2 mph84%30.04 "Hg19 mi
8:00 AM65 °FLow clouds.2 mph93%30.04 "Hg19 mi
7:00 AM62 °FOvercast.2 mph97%30.03 "Hg9 mi
6:00 AM62 °FPartly sunny.1 mph96%30.03 "Hg9 mi
5:00 AM61 °FOvercast.2 mph97%30.03 "Hg9 mi
4:00 AM62 °FOvercast.No wind96%30.03 "Hg4 mi
3:00 AM63 °FOvercast.2 mph96%30.03 "Hg10 mi
2:00 AM63 °FOvercast.3 mph96%30.03 "Hg9 mi
1:00 AM62 °FLight rain. Overcast.3 mph97%30.03 "Hg11 mi
12:00 AM62 °FPassing clouds.1 mph95%30.04 "Hg16 mi
11:00 PM
Fri, Jul 22
62 °FPassing clouds.2 mph93%30.04 "Hg16 mi
10:00 PM64 °FPassing clouds.2 mph91%30.03 "Hg16 mi
9:00 PM66 °FPartly sunny.3 mph83%30.02 "Hg19 mi
8:00 PM69 °FPartly sunny.1 mph79%30.00 "Hg19 mi
7:00 PM69 °FPartly sunny.5 mph79%30.00 "Hg19 mi
6:00 PM69 °FOvercast.3 mph81%29.98 "Hg12 mi
5:00 PM66 °FOvercast.5 mph87%30.02 "Hg12 mi
4:00 PM65 °FLight rain. Overcast.6 mph92%30.02 "Hg4 mi
3:00 PM65 °FThundershowers. Overcast.17 mph91%29.99 "Hg1 mi
Weather by CustomWeather, © 2016

See weather overviewHow to use our weather pages